Fremont, NE

7:59 PM CDT on April 25, 2018 (GMT -0500)
Fremont Municipal

Weather History for KFET - January, 2015

Change the Weather History Date:

Wednesday, January 7, 2015

  Actual Average Record
Temperature  
Mean Temperature 4 °F -  
Max Temperature 9 °F 27 °F 62 °F (2003)
Min Temperature -1 °F 7 °F -15 °F (1968)
Degree Days  
Heating Degree Days 61    
Moisture  
Dew Point -7 °F    
Average Humidity 64    
Maximum Humidity 74    
Minimum Humidity 54    
Precipitation  
Precipitation 0.00 in - - ()
Sea Level Pressure  
Sea Level Pressure 30.84 in    
Wind  
Wind Speed 16 mph (NW)    
Max Wind Speed 25 mph    
Max Gust Speed 37 mph    
Visibility 10 miles    
Events      
Averages and records for this station are not official NWS values.
T = Trace of Precipitation, MM = Missing Value Source: NWS Daily Summary

Daily Weather History Graph

Daily Weather History Graph

Search for Another Location

Airport or City:

Astronomy

Jan. 07, 2015 Rise Set
Actual Time 7:52 AM CST 5:12 PM CST
Civil Twilight 7:21 AM CST 5:43 PM CST
Nautical Twilight 6:46 AM CST 6:18 PM CST
Astronomical Twilight 6:13 AM CST 6:51 PM CST
Moon 8:00 PM CST (1/7) 9:04 AM CST (1/7)
Length of Visible Light 10h 22m
Length of Day
9h 20m
Waning Gibbous, 94% of the Moon is Illuminated
Jan 7
Waning Gibbous
Jan 13
Last Quarter
Jan 20
New
Jan 26
First Quarter
Feb 3
Full

Hourly Weather History & Observations

Time (CST) Temp. Windchill Dew Point Humidity Pressure Visibility Wind Dir Wind Speed Gust Speed Precip Events Conditions
12:15 AM 9.9 °F -9.8 °F 2.7 °F 73% 30.74 in 7.0 mi NW 21.9 mph 27.6 mph N/A   Mostly Cloudy
12:35 AM 9.3 °F -9.6 °F 1.2 °F 70% 30.75 in 10.0 mi NNW 19.6 mph 29.9 mph N/A   Mostly Cloudy
12:55 AM 8.8 °F -11.2 °F 0.5 °F 69% 30.76 in 7.0 mi NNW 21.9 mph 29.9 mph N/A   Clear
1:15 AM 8.2 °F -13.2 °F -0.9 °F 66% 30.77 in 10.0 mi NNW 25.3 mph 32.2 mph N/A   Clear
1:35 AM 7.7 °F -13.9 °F -2.0 °F 65% 30.78 in 5.0 mi NNW 25.3 mph 36.8 mph N/A   Haze
1:55 AM 7.7 °F -12.2 °F -2.6 °F 63% 30.78 in 10.0 mi NNW 20.7 mph 29.9 mph N/A   Clear
2:15 AM 7.3 °F -11.7 °F -3.1 °F 62% 30.80 in 10.0 mi NNW 18.4 mph 35.7 mph N/A   Clear
2:35 AM 7.3 °F -10.6 °F -2.0 °F 66% 30.82 in 10.0 mi NNW 16.1 mph 26.5 mph N/A   Clear
2:55 AM 7.3 °F -12.2 °F -1.7 °F 67% 30.83 in 10.0 mi NNW 19.6 mph 26.5 mph N/A   Clear
3:15 AM 7.2 °F -10.8 °F -0.4 °F 71% 30.85 in 10.0 mi NNW 16.1 mph 23.0 mph N/A   Clear
3:35 AM 6.4 °F -14.3 °F -3.1 °F 65% 30.86 in 10.0 mi NNW 21.9 mph 32.2 mph N/A   Scattered Clouds
3:55 AM 5.9 °F -13.5 °F -3.6 °F 65% 30.87 in 10.0 mi NNW 18.4 mph 26.5 mph N/A   Scattered Clouds
4:15 AM 5.4 °F -16.2 °F -4.9 °F 63% 30.87 in 10.0 mi NNW 23.0 mph 29.9 mph N/A   Clear
4:35 AM 5.0 °F -17.1 °F -5.8 °F 61% 30.89 in 10.0 mi NNW 24.2 mph 31.1 mph N/A   Clear
4:55 AM 4.5 °F -13.7 °F -5.8 °F 63% 30.90 in 10.0 mi NNW 15.0 mph 31.1 mph N/A   Clear
5:35 AM 3.9 °F -17.1 °F -7.1 °F 60% 30.92 in 10.0 mi NNW 20.7 mph 29.9 mph N/A   Clear
5:55 AM 3.0 °F -16.7 °F -6.7 °F 64% 30.94 in 10.0 mi NNW 17.3 mph 28.8 mph N/A   Clear
6:15 AM 2.8 °F -19.5 °F -6.9 °F 64% 30.95 in 10.0 mi NNW 23.0 mph 28.8 mph N/A   Clear
6:35 AM 2.1 °F -16.6 °F -7.6 °F 64% 30.97 in 10.0 mi NNW 15.0 mph 26.5 mph N/A   Scattered Clouds
6:55 AM 1.2 °F -18.4 °F -8.0 °F 65% 30.98 in 10.0 mi NNW 16.1 mph 23.0 mph N/A   Scattered Clouds
7:15 AM 0.9 °F -20.7 °F -8.5 °F 65% 30.99 in 10.0 mi NNW 19.6 mph 26.5 mph N/A   Clear
7:35 AM 0.1 °F -21.0 °F -9.4 °F 64% 31.00 in 10.0 mi NNW 18.4 mph 23.0 mph N/A   Clear
7:55 AM -0.4 °F -20.5 °F -9.8 °F 65% - 10.0 mi NNW 16.1 mph 25.3 mph N/A   Clear
8:15 AM -0.6 °F -20.8 °F -10.3 °F 64% - 10.0 mi NNW 16.1 mph 21.9 mph N/A   Clear
8:35 AM -0.6 °F -21.4 °F -10.1 °F 64% - 10.0 mi NNW 17.3 mph 21.9 mph N/A   Clear
8:55 AM -0.4 °F -19.2 °F -10.3 °F 63% - 10.0 mi NNW 13.8 mph 20.7 mph N/A   Clear
9:15 AM 0.1 °F -20.5 °F -10.1 °F 62% - 10.0 mi NNW 17.3 mph 23.0 mph N/A   Clear
9:35 AM 0.5 °F -18.7 °F -10.3 °F 60% - 10.0 mi NNW 15.0 mph 23.0 mph N/A   Clear
9:55 AM 0.9 °F -18.9 °F -10.1 °F 60% - 10.0 mi NNW 16.1 mph 25.3 mph N/A   Clear
10:15 AM 1.4 °F -20.5 °F -9.2 °F 61% - 10.0 mi NW 20.7 mph 24.2 mph N/A   Clear
10:35 AM 1.4 °F -18.8 °F -10.3 °F 58% - 10.0 mi NNW 17.3 mph 25.3 mph N/A   Clear
10:55 AM 1.9 °F -17.5 °F -9.6 °F 59% - 10.0 mi NNW 16.1 mph 24.2 mph N/A   Clear
11:15 AM 1.9 °F -19.8 °F -10.1 °F 57% - 10.0 mi NNW 20.7 mph 25.3 mph N/A   Clear
11:35 AM 2.7 °F -15.3 °F -9.6 °F 57% - 10.0 mi NNW 13.8 mph 21.9 mph N/A   Clear
11:55 AM 3.0 °F -17.3 °F -9.0 °F 57% - 10.0 mi NNW 18.4 mph 23.0 mph N/A   Clear
12:15 PM 3.2 °F -15.3 °F -9.6 °F 55% - 10.0 mi NW 15.0 mph - N/A   Clear
12:35 PM 3.4 °F -12.0 °F -9.8 °F 54% - 10.0 mi NNW 10.4 mph - N/A   Clear
12:55 PM 3.7 °F -13.2 °F -8.3 °F 57% - 10.0 mi NNW 12.7 mph 17.3 mph N/A   Clear
1:15 PM 4.1 °F -12.0 °F -8.1 °F 57% - 10.0 mi NNW 11.5 mph - N/A   Clear
1:35 PM 4.3 °F -14.5 °F -8.1 °F 56% - 10.0 mi NW 16.1 mph - N/A   Clear
1:55 PM 4.8 °F -11.1 °F -7.4 °F 57% - 10.0 mi NW 11.5 mph - N/A   Clear
2:15 PM 4.6 °F -11.3 °F -6.9 °F 59% - 10.0 mi NW 11.5 mph - N/A   Clear
2:35 PM 4.6 °F -12.0 °F -7.1 °F 58% - 10.0 mi NW 12.7 mph - N/A   Clear
2:55 PM 5.0 °F -10.0 °F -7.4 °F 57% 31.00 in 10.0 mi NW 10.4 mph - N/A   Clear
3:15 PM 4.8 °F -11.8 °F -7.6 °F 57% 30.99 in 10.0 mi NW 12.7 mph - N/A   Clear
3:35 PM 5.0 °F -10.8 °F -6.7 °F 59% 30.99 in 10.0 mi NW 11.5 mph - N/A   Clear
3:55 PM 4.6 °F -10.4 °F -7.1 °F 58% 30.98 in 10.0 mi NW 10.4 mph - N/A   Clear
4:15 PM 4.5 °F -9.8 °F -7.8 °F 57% 30.98 in 10.0 mi WNW 9.2 mph - N/A   Clear
4:35 PM 4.1 °F -9.2 °F -7.6 °F 58% 30.98 in 10.0 mi WNW 8.1 mph - N/A   Clear
4:55 PM 3.2 °F -7.8 °F -8.0 °F 60% 30.95 in 10.0 mi WNW 5.8 mph - N/A   Clear
5:15 PM 1.9 °F -7.6 °F -8.1 °F 63% 30.94 in 10.0 mi West 4.6 mph - N/A   Clear
5:35 PM 0.7 °F - -8.5 °F 65% 30.92 in 10.0 mi Calm Calm - N/A   Clear
5:55 PM 0.7 °F - -8.7 °F 65% 30.92 in 10.0 mi Calm Calm - N/A   Clear
6:15 PM 1.8 °F - -7.8 °F 64% 30.90 in 10.0 mi Calm Calm - N/A   Clear
6:35 PM -0.4 °F - -8.5 °F 69% 30.89 in 10.0 mi Calm Calm - N/A   Clear
6:55 PM -0.4 °F - -7.2 °F 73% 30.87 in 10.0 mi Calm Calm - N/A   Clear
7:15 PM -1.3 °F - -7.8 °F 74% 30.86 in 10.0 mi Calm Calm - N/A   Clear
7:35 PM -1.3 °F - -8.0 °F 73% 30.84 in 10.0 mi Calm Calm - N/A   Clear
7:55 PM -0.6 °F -8.5 °F -7.6 °F 72% 30.82 in 10.0 mi South 3.5 mph - N/A   Clear
8:15 PM -0.4 °F -8.3 °F -8.0 °F 70% 30.80 in 10.0 mi SSE 3.5 mph - N/A   Clear
8:35 PM -0.8 °F -8.7 °F -8.0 °F 72% 30.79 in 10.0 mi South 3.5 mph - N/A   Clear
8:55 PM -0.4 °F -10.4 °F -7.8 °F 71% 30.75 in 10.0 mi SSE 4.6 mph - N/A   Clear
9:15 PM 0.5 °F -7.3 °F -7.6 °F 69% 30.75 in 10.0 mi South 3.5 mph - N/A   Clear
9:35 PM 1.9 °F -9.2 °F -6.7 °F 67% 30.73 in 10.0 mi South 5.8 mph - N/A   Clear
9:55 PM 2.1 °F -11.6 °F -6.7 °F 67% 30.71 in 10.0 mi South 8.1 mph - N/A   Clear
10:15 PM 2.1 °F -10.4 °F -6.3 °F 68% 30.69 in 10.0 mi South 6.9 mph - N/A   Clear
10:35 PM 2.8 °F -11.7 °F -6.2 °F 66% 30.67 in 10.0 mi South 9.2 mph - N/A   Clear
10:55 PM 2.8 °F -11.7 °F -6.2 °F 66% 30.65 in 10.0 mi South 9.2 mph - N/A   Clear
11:15 PM 2.8 °F -10.7 °F -5.8 °F 67% 30.63 in 10.0 mi South 8.1 mph - N/A   Clear
11:35 PM 3.7 °F -9.6 °F -5.4 °F 66% 30.59 in 10.0 mi South 8.1 mph - N/A   Clear
11:55 PM 4.1 °F -12.0 °F -5.1 °F 66% 30.56 in 10.0 mi South 11.5 mph 18.4 mph N/A   Clear